Freeland, MI

9:31 AM EST on February 19, 2017 (GMT -0500)
MBS International

Weather History for KMBS - January, 2015

Change the Weather History Date:

Thursday, January 29, 2015

  Actual Average Record
Temperature  
Mean Temperature 29 °F 22 °F  
Max Temperature 34 °F 29 °F 55 °F (2013)
Min Temperature 24 °F 15 °F 0 °F (2004)
Degree Days  
Heating Degree Days 36    
Month to date heating degree days 1274  
Since 1 July heating degree days 3783  
Cooling Degree Days 0    
Month to date cooling degree days 0  
Year to date cooling degree days 0  
Moisture  
Dew Point 22 °F    
Average Humidity 64    
Maximum Humidity 85    
Minimum Humidity 42    
Precipitation  
Precipitation 0.04 in 0.04 in 0.99 in (2013)
Month to date precipitation 1.02 1.61  
Year to date precipitation 1.02 1.61  
Snow  
Snow 1.40 in - - ()
Month to date snowfall 11.9  
Since 1 July snowfall 15.7  
Snow Depth 3.00 in    
Sea Level Pressure  
Sea Level Pressure 29.87 in    
Wind  
Wind Speed 13 mph (WNW)    
Max Wind Speed 30 mph    
Max Gust Speed 39 mph    
Visibility 6 miles    
Events Snow    
T = Trace of Precipitation, MM = Missing Value Source: NWS Daily Summary

Daily Weather History Graph

Daily Weather History Graph

Search for Another Location

Airport or City:

Trip Planner

Search our weather history database for the weather conditions in past years. The results will help you decide how hot, cold, wet, or windy it might be!

Date:

Astronomy

Jan. 29, 2015 Rise Set
Actual Time 7:55 AM EST 5:43 PM EST
Civil Twilight 7:25 AM EST 6:14 PM EST
Nautical Twilight 6:50 AM EST 6:48 PM EST
Astronomical Twilight 6:17 AM EST 7:22 PM EST
Moon 1:30 PM EST (1/29) 3:27 AM EST (1/29)
Length of Visible Light 10h 48m
Length of Day
9h 47m
Waxing Gibbous, 75% of the Moon is Illuminated
Jan 29
Waxing Gibbous
Feb 3
Full
Feb 11
Last Quarter
Feb 18
New
Feb 25
First Quarter

Hourly Weather History & Observations

Time (EST) Temp. Windchill Dew Point Humidity Pressure Visibility Wind Dir Wind Speed Gust Speed Precip Events Conditions
12:53 AM 28.0 °F 17.5 °F 10.9 °F 49% 30.05 in 10.0 mi South 12.7 mph - N/A   Overcast
1:53 AM 28.0 °F 17.0 °F 15.1 °F 58% 30.00 in 10.0 mi SSE 13.8 mph 21.9 mph N/A   Overcast
2:53 AM 28.9 °F 20.4 °F 16.0 °F 58% 29.98 in 10.0 mi South 9.2 mph - N/A   Overcast
3:53 AM 28.4 °F 19.7 °F 15.8 °F 59% 29.91 in 10.0 mi South 9.2 mph - N/A   Overcast
4:45 AM 28.0 °F 17.0 °F 19.0 °F 69% 29.88 in 2.0 mi South 13.8 mph - 0.00 in Snow Light Snow
4:50 AM 28.4 °F 17.0 °F 19.4 °F 69% 29.88 in 1.5 mi South 15.0 mph - 0.00 in Snow Light Snow
4:53 AM 28.0 °F 17.0 °F 21.0 °F 75% 29.90 in 1.2 mi South 13.8 mph - 0.00 in Snow Light Snow
5:27 AM 26.6 °F 16.8 °F 23.0 °F 86% 29.85 in 3.0 mi SSE 10.4 mph - N/A Snow Light Snow
5:34 AM 27.0 °F 16.7 °F 23.0 °F 85% 29.85 in 5.0 mi SSE 11.5 mph - 0.01 in Snow Light Snow
5:53 AM 27.0 °F 17.3 °F 23.0 °F 85% 29.86 in 9.0 mi SSE 10.4 mph - 0.01 in   Overcast
6:53 AM 28.0 °F 20.8 °F 23.0 °F 81% 29.83 in 7.0 mi SSE 6.9 mph - 0.00 in Snow Light Snow
7:53 AM 28.0 °F 22.8 °F 23.0 °F 81% 29.81 in 8.0 mi SE 4.6 mph - 0.00 in Snow Light Snow
8:53 AM 28.9 °F 25.2 °F 23.0 °F 78% 29.80 in 10.0 mi SE 3.5 mph - 0.00 in   Overcast
9:53 AM 30.0 °F - 23.0 °F 75% 29.80 in 3.0 mi Calm Calm - 0.00 in Snow Light Snow
10:18 AM 28.9 °F 25.2 °F 23.0 °F 78% 29.77 in 2.0 mi NNW 3.5 mph - 0.01 in Snow Light Snow
10:53 AM 28.9 °F 22.8 °F 24.1 °F 82% 29.80 in 0.8 mi North 5.8 mph - 0.02 in Snow Light Snow
11:15 AM 28.9 °F 23.9 °F 25.0 °F 85% 29.77 in 1.0 mi North 4.6 mph - 0.00 in Snow Light Snow
11:53 AM 28.9 °F 25.2 °F 25.0 °F 85% 29.79 in 2.5 mi North 3.5 mph - 0.01 in   Overcast
12:53 PM 30.9 °F 26.2 °F 26.1 °F 82% 29.78 in 2.5 mi NW 4.6 mph - 0.00 in Snow Light Snow
1:07 PM 30.9 °F 22.8 °F 26.1 °F 82% 29.75 in 1.5 mi WNW 9.2 mph - 0.00 in Snow Light Snow
1:50 PM 30.2 °F 21.9 °F 26.6 °F 86% 29.75 in 0.8 mi NW 9.2 mph - 0.00 in Snow Light Snow
1:53 PM 30.9 °F 22.2 °F 26.1 °F 82% 29.77 in 1.0 mi NW 10.4 mph - 0.00 in Snow Light Snow
2:25 PM 32.0 °F 23.0 °F 26.1 °F 79% 29.75 in 1.0 mi NW 11.5 mph - 0.00 in Snow Light Snow
2:35 PM 32.0 °F 23.6 °F 26.1 °F 79% 29.76 in 2.5 mi NW 10.4 mph - 0.00 in Snow Light Snow
2:53 PM 32.0 °F 22.5 °F 26.1 °F 79% 29.79 in 2.5 mi NW 12.7 mph - 0.00 in Snow Light Snow
3:04 PM 32.0 °F 23.0 °F 26.1 °F 79% 29.77 in 7.0 mi NW 11.5 mph - 0.00 in   Overcast
3:46 PM 34.0 °F 25.5 °F 26.1 °F 73% 29.80 in 9.0 mi NW 11.5 mph - 0.00 in   Overcast
3:53 PM 34.0 °F 25.5 °F 26.1 °F 73% 29.83 in 9.0 mi NW 11.5 mph - 0.00 in   Overcast
4:08 PM 34.0 °F 25.5 °F 26.1 °F 73% 29.81 in 9.0 mi NW 11.5 mph - N/A   Overcast
4:23 PM 34.0 °F 25.0 °F 26.1 °F 73% 29.83 in 10.0 mi NW 12.7 mph - N/A   Overcast
4:33 PM 34.0 °F 23.0 °F 25.0 °F 70% 29.83 in 10.0 mi NNW 18.4 mph 25.3 mph N/A   Overcast
4:53 PM 34.0 °F 23.4 °F 26.1 °F 73% 29.88 in 10.0 mi NW 17.3 mph - N/A   Overcast
5:53 PM 33.1 °F 20.1 °F 26.1 °F 75% 29.92 in 10.0 mi NW 25.3 mph 29.9 mph N/A   Overcast
6:53 PM 33.1 °F 20.9 °F 23.0 °F 66% 29.97 in 10.0 mi NW 21.9 mph 27.6 mph N/A   Overcast
7:53 PM 30.9 °F 19.1 °F 21.9 °F 69% 30.01 in 10.0 mi NW 18.4 mph 27.6 mph N/A   Overcast
8:32 PM 30.0 °F 17.2 °F 19.0 °F 64% 30.00 in 10.0 mi NW 20.7 mph - N/A   Overcast
8:53 PM 30.0 °F 16.6 °F 19.0 °F 64% 30.04 in 10.0 mi NW 23.0 mph 27.6 mph N/A   Overcast
9:53 PM 28.0 °F 14.3 °F 19.0 °F 69% 30.07 in 10.0 mi NW 21.9 mph 32.2 mph N/A   Overcast
10:53 PM 26.1 °F 11.3 °F 16.0 °F 66% 30.10 in 10.0 mi NW 23.0 mph 39.1 mph 0.00 in   Overcast
11:53 PM 24.1 °F 9.8 °F 12.9 °F 62% 30.14 in 10.0 mi NW 19.6 mph 28.8 mph 0.00 in   Overcast